This demonstration page uses our WeatherBlox Daily Observations layout. Learn more.

41.55636, -103.73856

Hourly Observations for March 29, 2019

Temp ( °F °C ) Dew Point ( °F °C ) Humidity (%) Winds ( mph kmh ) Pressure ( in mb ) Visibility ( mi km ) Precip ( " mm )
12:58 am 00:58 Cloudy 36 2.1 32 0.2 87 87 E 9 15 30.17 1022 10 16.0934 0 0
1:58 am 01:58 Cloudy 35 1.9 31 -0.6 84 84 SE 9 15 30.16 1022 10 16.0934 0 0
2:58 am 02:58 Mostly Cloudy 36 2 31 -0.8 82 82 SE 12 19 30.15 1021 10 16.0934 0 0
3:58 am 03:58 Cloudy 36 2 31 -0.7 83 83 S 8 13 30.17 1022 10 16.0934 0 0
4:58 am 04:58 Cloudy 35 1.9 31 -0.8 83 83 SSE 8 13 30.17 1022 10 16.0934 0 0
5:58 am 05:58 Cloudy 35 1.6 31 -0.8 84 84 S 10 17 30.17 1022 10 16.0934 0 0
6:58 am 06:58 Cloudy with Light Drizzle 33 0.7 30 -0.9 89 89 SSE 10 17 30.12 1020 10 16.0934 0 0
7:58 am 07:58 Cloudy with Light Showers 33 0.7 31 -0.6 91 91 SE 9 15 30.12 1020 10 16.0934 0 0
8:58 am 08:58 Cloudy 33 0.6 30 -1 89 89 SE 12 19 30.09 1019 10 16.0934 0 0
9:58 am 09:58 Cloudy 32 0.1 30 -1.3 90 90 SE 12 19 30.09 1019 10 16.0934 0 0
10:58 am 10:58 Cloudy with Light Drizzle 32 -0.2 30 -1.1 94 94 SE 12 19 30.08 1019 4 6.43736 0 0
11:58 am 11:58 Cloudy with Mist and Fog 31 -0.3 30 -1 95 95 SE 15 24 30.07 1018 4 6.43736 0 0
12:58 pm 12:58 Mostly Cloudy with Light Showers 31 -0.4 30 -1.1 95 95 SE 13 20 30.07 1018 5 8.0467 0 0
1:58 pm 13:58 Mostly Cloudy with Mist and Fog 32 -0.2 30 -0.9 95 95 SSE 13 20 30.08 1019 5 8.0467 0 0
2:58 pm 14:58 Cloudy 33 0.3 31 -0.5 94 94 SSE 13 20 30.07 1018 10 16.0934 0 0
3:58 pm 15:58 Cloudy 33 0.4 31 -0.5 94 94 S 13 20 30.06 1018 10 16.0934 0 0
4:58 pm 16:58 Cloudy with Light Showers 33 0.7 31 -0.6 91 91 S 10 17 30.06 1018 10 16.0934 0 0
5:58 pm 17:58 Cloudy with Light Rain/Snow 34 1.2 32 -0.1 91 91 SSE 8 13 30.05 1018 10 16.0934 0 0
6:58 pm 18:58 Cloudy 34 1 31 -0.6 89 89 ESE 6 9 30.04 1017 10 16.0934 0 0
7:58 pm 19:58 Mostly Cloudy with Light Showers 32 0.1 31 -0.7 94 94 E 14 22 30.06 1018 1 1.60934 0 0
8:58 pm 20:58 Mostly Cloudy with Scattered Snow Showers 31 -0.3 30 -0.9 96 96 E 8 13 30.08 1019 2.25 3.621015 0.02 0.508
9:58 pm 21:58 Cloudy with Light Snow Showers 32 0.1 31 -0.6 95 95 NE 6 9 30.09 1019 4 6.43736 0 0
10:58 pm 22:58 Mostly Cloudy with Scattered Snow Showers 31 -0.3 30 -1.1 94 94 NE 15 24 30.09 1019 3 4.82802 0.02 0.508
11:58 pm 23:58 Mostly Cloudy with Light Wintry Mix 31 -0.7 29 -1.4 95 95 NNE 12 19 30.14 1021 1 1.60934 0 0

Powered by AerisWeather